Find Aerocube 16A

NORAD ID: 59290 Int'l Des: 2024-053 Owner: AERO Country: US operational
LEOCIRCULAR

現在のビュー

3D地球を読み込み中...

Aerocube 16Aについて

説明を読み込み中...

次回通過

Passes for default location (London). Set your location on the main map for personalized predictions.

高度履歴

Loading altitude history...

軌道要素

1 59290U 24053C 26150.94871502 .00017886 00000-0 40310-3 0 9990
2 59290 49.9903 52.3551 0002385 255.5828 104.4871 15.43274702118443
Epoch: May 30, 2026 • Age: 17 hours

現在のステータス

高度 441.4 km
速度 7.65 km/s
衛星直下点 41.06°N, 35.58°W
打ち上げ日 Mar 21, 2024
運用期間 2.1 years
タイプ other

技術仕様

分類 Payload
質量 10.00 kg
乾燥質量 10.00 kg
総質量 10.00 kg
長さ 2.00 m
直径 1.00 m
スパン 5.00 m
形状 Box + pan
製造者 AERO
バスタイプ Cubesat 6U
フェーズステータス In Orbit
所有者/国 AERO/US

Most Searched